{"data":{"norad_id":68831,"epoch":"2026-09-20T01:45:42.134112Z","epoch_age_seconds":93000,"freshness":"FRESH","line1":"1 68831U 26091A   26263.07340433  .00001555  00000+0  87700-4 0  9998","line2":"2 68831  55.0049 327.0976 0007485 296.5471  63.4781 15.19252052 22626","mean_motion":15.19252052,"eccentricity":0.0007485,"inclination_deg":55.0049,"raan_deg":327.0976,"arg_perigee_deg":296.5471,"mean_anomaly_deg":63.4781,"bstar":8.77e-5,"rev_number":2262,"period_min":94.783482313177,"perigee_km":502.94546265944,"apogee_km":513.25415916537,"semimajor_km":6886.2368109124,"source":"CELESTRAK","updated_at":"2026-09-20T09:00:24.495511Z"}}